| time (UTC) | temp F | wind direction | speed MPH | gust MPH | rain 1hr in | rain 24hr in | rain mn in | humidity % | barometer mb |
| 20260504150417 | 0 | 144 | 987.0 | 0.0 | 0.00 | 0.00 | 0.00 | ||
| 20260504150407 | 90 | 0 | 0.0 | 0.0 | 0.00 | 0.00 | 0.00 | 52 | 1010.0 |
| 20260504141227 | 0 | 144 | 987.0 | 0.0 | 0.00 | 0.00 | 0.00 | ||
| 20260504141217 | 92 | 0 | 0.0 | 0.0 | 0.00 | 0.00 | 0.00 | 50 | 1010.0 |
| 20260504140326 | 0 | 144 | 987.0 | 0.0 | 0.00 | 0.00 | 0.00 | ||
| 20260504130804 | 93 | 0 | 0.0 | 0.0 | 0.00 | 0.00 | 0.00 | 49 | 1007.0 |
| 20260504110554 | 0 | 144 | 987.0 | 0.0 | 0.00 | 0.00 | 0.00 | ||
| 20260504100354 | 97 | 0 | 0.0 | 0.0 | 0.00 | 0.00 | 0.00 | 45 | 1005.0 |
| 20260504090111 | 101 | 0 | 0.0 | 0.0 | 0.00 | 0.00 | 0.00 | 43 | 1005.0 |
| 20260504080753 | 104 | 0 | 0.0 | 0.0 | 0.00 | 0.00 | 0.00 | 42 | 1005.0 |
| 20260504050117 | 103 | 0 | 0.0 | 0.0 | 0.00 | 0.00 | 0.00 | 46 | 1008.0 |
| 20260504045055 | 102 | 0 | 0.0 | 0.0 | 0.00 | 0.00 | 0.00 | 47 | 1008.0 |
| 20260504044033 | 101 | 0 | 0.0 | 0.0 | 0.00 | 0.00 | 0.00 | 48 | 1008.0 |
| 20260504043011 | 101 | 0 | 0.0 | 0.0 | 0.00 | 0.00 | 0.00 | 48 | 1008.0 |
| 20260504041949 | 101 | 0 | 0.0 | 0.0 | 0.00 | 0.00 | 0.00 | 48 | 1008.0 |
| 20260504040927 | 100 | 0 | 0.0 | 0.0 | 0.00 | 0.00 | 0.00 | 49 | 1009.0 |
| 20260504035905 | 99 | 0 | 0.0 | 0.0 | 0.00 | 0.00 | 0.00 | 49 | 1009.0 |
| 20260504034843 | 99 | 0 | 0.0 | 0.0 | 0.00 | 0.00 | 0.00 | 49 | 1009.0 |
| 20260504033821 | 99 | 0 | 0.0 | 0.0 | 0.00 | 0.00 | 0.00 | 50 | 1009.0 |
| 20260504032759 | 98 | 0 | 0.0 | 0.0 | 0.00 | 0.00 | 0.00 | 50 | 1009.0 |
| 20260504031737 | 98 | 0 | 0.0 | 0.0 | 0.00 | 0.00 | 0.00 | 51 | 1009.0 |
| 20260504030715 | 97 | 0 | 0.0 | 0.0 | 0.00 | 0.00 | 0.00 | 51 | 1009.0 |
| 20260504025653 | 97 | 0 | 0.0 | 0.0 | 0.00 | 0.00 | 0.00 | 52 | 1009.0 |
| 20260504024631 | 96 | 0 | 0.0 | 0.0 | 0.00 | 0.00 | 0.00 | 52 | 1009.0 |
| 20260504023609 | 95 | 0 | 0.0 | 0.0 | 0.00 | 0.00 | 0.00 | 53 | 1009.0 |
| 20260504022547 | 95 | 0 | 0.0 | 0.0 | 0.00 | 0.00 | 0.00 | 53 | 1009.0 |
| 20260504021525 | 94 | 0 | 0.0 | 0.0 | 0.00 | 0.00 | 0.00 | 54 | 1009.0 |
| 20260504020503 | 93 | 0 | 0.0 | 0.0 | 0.00 | 0.00 | 0.00 | 54 | 1009.0 |
| 20260504015441 | 93 | 0 | 0.0 | 0.0 | 0.00 | 0.00 | 0.00 | 55 | 1010.0 |
| 20260504014419 | 92 | 0 | 0.0 | 0.0 | 0.00 | 0.00 | 0.00 | 55 | 1010.0 |
| 20260504013357 | 91 | 0 | 0.0 | 0.0 | 0.00 | 0.00 | 0.00 | 56 | 1010.0 |
| 20260504012335 | 90 | 0 | 0.0 | 0.0 | 0.00 | 0.00 | 0.00 | 56 | 1010.0 |
| 20260504011313 | 90 | 0 | 0.0 | 0.0 | 0.00 | 0.00 | 0.00 | 57 | 1009.0 |
| 20260504010224 | 89 | 0 | 0.0 | 0.0 | 0.00 | 0.00 | 0.00 | 58 | 1009.0 |
| 20260504005202 | 88 | 0 | 0.0 | 0.0 | 0.00 | 0.00 | 0.00 | 58 | 1009.0 |
| 20260504004140 | 88 | 0 | 0.0 | 0.0 | 0.00 | 0.00 | 0.00 | 58 | 1009.0 |
| 20260504003118 | 87 | 0 | 0.0 | 0.0 | 0.00 | 0.00 | 0.00 | 59 | 1009.0 |
| 20260504002056 | 87 | 0 | 0.0 | 0.0 | 0.00 | 0.00 | 0.00 | 59 | 1009.0 |
| 20260504001034 | 86 | 0 | 0.0 | 0.0 | 0.00 | 0.00 | 0.00 | 60 | 1009.0 |
| 20260504000012 | 86 | 0 | 0.0 | 0.0 | 0.00 | 0.00 | 0.00 | 60 | 1009.0 |
| 20260503234950 | 85 | 0 | 0.0 | 0.0 | 0.00 | 0.00 | 0.00 | 60 | 1008.0 |
| 20260503233928 | 85 | 0 | 0.0 | 0.0 | 0.00 | 0.00 | 0.00 | 60 | 1008.0 |
| 20260503232906 | 85 | 0 | 0.0 | 0.0 | 0.00 | 0.00 | 0.00 | 61 | 1008.0 |
| 20260503231844 | 85 | 0 | 0.0 | 0.0 | 0.00 | 0.00 | 0.00 | 60 | 1008.0 |
| 20260503230832 | 0 | 144 | 987.0 | 0.0 | 0.00 | 0.00 | 0.00 | ||
| 20260503230822 | 85 | 0 | 0.0 | 0.0 | 0.00 | 0.00 | 0.00 | 60 | 1008.0 |
| 20260503225810 | 0 | 144 | 987.0 | 0.0 | 0.00 | 0.00 | 0.00 | ||
| 20260503225800 | 85 | 0 | 0.0 | 0.0 | 0.00 | 0.00 | 0.00 | 60 | 1008.0 |
| 20260503224748 | 0 | 144 | 987.0 | 0.0 | 0.00 | 0.00 | 0.00 | ||
| 20260503224738 | 85 | 0 | 0.0 | 0.0 | 0.00 | 0.00 | 0.00 | 60 | 1007.0 |
| 20260503223725 | 0 | 144 | 987.0 | 0.0 | 0.00 | 0.00 | 0.00 | ||
| 20260503223716 | 85 | 0 | 0.0 | 0.0 | 0.00 | 0.00 | 0.00 | 60 | 1007.0 |
| 20260503222702 | 0 | 144 | 987.0 | 0.0 | 0.00 | 0.00 | 0.00 | ||
| 20260503222653 | 85 | 0 | 0.0 | 0.0 | 0.00 | 0.00 | 0.00 | 60 | 1007.0 |
| 20260503221640 | 0 | 144 | 987.0 | 0.0 | 0.00 | 0.00 | 0.00 | ||
| 20260503221631 | 85 | 0 | 0.0 | 0.0 | 0.00 | 0.00 | 0.00 | 60 | 1007.0 |
| 20260503220618 | 0 | 144 | 987.0 | 0.0 | 0.00 | 0.00 | 0.00 | ||
| 20260503220609 | 85 | 0 | 0.0 | 0.0 | 0.00 | 0.00 | 0.00 | 60 | 1007.0 |
| 20260503215556 | 0 | 144 | 987.0 | 0.0 | 0.00 | 0.00 | 0.00 | ||
| 20260503215547 | 85 | 0 | 0.0 | 0.0 | 0.00 | 0.00 | 0.00 | 60 | 1007.0 |
| 20260503214534 | 0 | 144 | 987.0 | 0.0 | 0.00 | 0.00 | 0.00 | ||
| 20260503214525 | 85 | 0 | 0.0 | 0.0 | 0.00 | 0.00 | 0.00 | 60 | 1007.0 |
| 20260503213512 | 0 | 144 | 987.0 | 0.0 | 0.00 | 0.00 | 0.00 | ||
| 20260503213503 | 86 | 0 | 0.0 | 0.0 | 0.00 | 0.00 | 0.00 | 59 | 1007.0 |
| 20260503212450 | 0 | 144 | 987.0 | 0.0 | 0.00 | 0.00 | 0.00 | ||
| 20260503212441 | 86 | 0 | 0.0 | 0.0 | 0.00 | 0.00 | 0.00 | 59 | 1007.0 |
| 20260503211428 | 0 | 144 | 987.0 | 0.0 | 0.00 | 0.00 | 0.00 | ||
| 20260503211419 | 86 | 0 | 0.0 | 0.0 | 0.00 | 0.00 | 0.00 | 59 | 1007.0 |
| 20260503210406 | 0 | 144 | 987.0 | 0.0 | 0.00 | 0.00 | 0.00 | ||
| 20260503210357 | 86 | 0 | 0.0 | 0.0 | 0.00 | 0.00 | 0.00 | 59 | 1007.0 |
| 20260503205344 | 0 | 144 | 987.0 | 0.0 | 0.00 | 0.00 | 0.00 | ||
| 20260503205334 | 86 | 0 | 0.0 | 0.0 | 0.00 | 0.00 | 0.00 | 59 | 1007.0 |
| 20260503204322 | 0 | 144 | 987.0 | 0.0 | 0.00 | 0.00 | 0.00 | ||
| 20260503204313 | 86 | 0 | 0.0 | 0.0 | 0.00 | 0.00 | 0.00 | 59 | 1007.0 |
| 20260503203300 | 0 | 144 | 987.0 | 0.0 | 0.00 | 0.00 | 0.00 | ||
| 20260503203251 | 86 | 0 | 0.0 | 0.0 | 0.00 | 0.00 | 0.00 | 59 | 1007.0 |
| 20260503202238 | 0 | 144 | 987.0 | 0.0 | 0.00 | 0.00 | 0.00 | ||
| 20260503202228 | 86 | 0 | 0.0 | 0.0 | 0.00 | 0.00 | 0.00 | 58 | 1007.0 |
| 20260503201216 | 0 | 144 | 987.0 | 0.0 | 0.00 | 0.00 | 0.00 | ||
| 20260503201206 | 86 | 0 | 0.0 | 0.0 | 0.00 | 0.00 | 0.00 | 58 | 1007.0 |
| 20260503200154 | 0 | 144 | 987.0 | 0.0 | 0.00 | 0.00 | 0.00 | ||
| 20260503200144 | 87 | 0 | 0.0 | 0.0 | 0.00 | 0.00 | 0.00 | 58 | 1007.0 |
| 20260503195132 | 0 | 144 | 987.0 | 0.0 | 0.00 | 0.00 | 0.00 | ||
| 20260503195122 | 87 | 0 | 0.0 | 0.0 | 0.00 | 0.00 | 0.00 | 58 | 1007.0 |
| 20260503194109 | 0 | 144 | 987.0 | 0.0 | 0.00 | 0.00 | 0.00 | ||
| 20260503194100 | 87 | 0 | 0.0 | 0.0 | 0.00 | 0.00 | 0.00 | 58 | 1007.0 |
| 20260503193047 | 0 | 144 | 987.0 | 0.0 | 0.00 | 0.00 | 0.00 | ||
| 20260503193038 | 87 | 0 | 0.0 | 0.0 | 0.00 | 0.00 | 0.00 | 58 | 1007.0 |
| 20260503192025 | 0 | 144 | 987.0 | 0.0 | 0.00 | 0.00 | 0.00 | ||
| 20260503192016 | 87 | 0 | 0.0 | 0.0 | 0.00 | 0.00 | 0.00 | 57 | 1007.0 |
| 20260503191003 | 0 | 144 | 987.0 | 0.0 | 0.00 | 0.00 | 0.00 | ||
| 20260503190954 | 87 | 0 | 0.0 | 0.0 | 0.00 | 0.00 | 0.00 | 57 | 1007.0 |
| 20260503185941 | 0 | 144 | 987.0 | 0.0 | 0.00 | 0.00 | 0.00 | ||
| 20260503185932 | 87 | 0 | 0.0 | 0.0 | 0.00 | 0.00 | 0.00 | 57 | 1007.0 |
| 20260503184919 | 0 | 144 | 987.0 | 0.0 | 0.00 | 0.00 | 0.00 | ||
| 20260503184910 | 87 | 0 | 0.0 | 0.0 | 0.00 | 0.00 | 0.00 | 57 | 1007.0 |
| 20260503183857 | 0 | 144 | 987.0 | 0.0 | 0.00 | 0.00 | 0.00 | ||
| 20260503183848 | 87 | 0 | 0.0 | 0.0 | 0.00 | 0.00 | 0.00 | 57 | 1007.0 |
| 20260503182835 | 0 | 144 | 987.0 | 0.0 | 0.00 | 0.00 | 0.00 | ||
| 20260503182825 | 87 | 0 | 0.0 | 0.0 | 0.00 | 0.00 | 0.00 | 57 | 1007.0 |
| 20260503181813 | 0 | 144 | 987.0 | 0.0 | 0.00 | 0.00 | 0.00 | ||
| 20260503181803 | 88 | 0 | 0.0 | 0.0 | 0.00 | 0.00 | 0.00 | 57 | 1008.0 |
| 20260503180751 | 0 | 144 | 987.0 | 0.0 | 0.00 | 0.00 | 0.00 | ||
| 20260503180741 | 88 | 0 | 0.0 | 0.0 | 0.00 | 0.00 | 0.00 | 57 | 1008.0 |
| 20260503175729 | 0 | 144 | 987.0 | 0.0 | 0.00 | 0.00 | 0.00 | ||
| 20260503175719 | 88 | 0 | 0.0 | 0.0 | 0.00 | 0.00 | 0.00 | 57 | 1008.0 |
| 20260503174708 | 0 | 144 | 987.0 | 0.0 | 0.00 | 0.00 | 0.00 | ||
| 20260503174657 | 88 | 0 | 0.0 | 0.0 | 0.00 | 0.00 | 0.00 | 56 | 1008.0 |
| 20260503173645 | 0 | 144 | 987.0 | 0.0 | 0.00 | 0.00 | 0.00 | ||
| 20260503173636 | 88 | 0 | 0.0 | 0.0 | 0.00 | 0.00 | 0.00 | 56 | 1008.0 |
| 20260503172623 | 0 | 144 | 987.0 | 0.0 | 0.00 | 0.00 | 0.00 | ||
| 20260503172614 | 88 | 0 | 0.0 | 0.0 | 0.00 | 0.00 | 0.00 | 56 | 1008.0 |
| 20260503171601 | 0 | 144 | 987.0 | 0.0 | 0.00 | 0.00 | 0.00 | ||
| 20260503171552 | 88 | 0 | 0.0 | 0.0 | 0.00 | 0.00 | 0.00 | 56 | 1008.0 |
| 20260503170539 | 0 | 144 | 987.0 | 0.0 | 0.00 | 0.00 | 0.00 | ||
| 20260503170530 | 88 | 0 | 0.0 | 0.0 | 0.00 | 0.00 | 0.00 | 56 | 1008.0 |